NOAA NWS Hourly Roundups by Site

Regional Weather Roundup for State College, PA

To Select Another Site Choose from List

Select Site:  

000
ASUS41 KCTP 280110
RWRCTP

REGIONAL WEATHER ROUNDUP
NATIONAL WEATHER SERVICE STATE COLLEGE PA
800 PM EST WED JAN 27 2021

Note: "fair" indicates few or no clouds below 12,000 feet with no
significant weather and/or obstructions to visibility.

* = STATION THAT DOES NOT REPORT PRECIPITATION /E.G. RAIN...SNOW...ETC/
    THUNDER OR FOG.

PAZ002>004-007>009-013>016-020>023-029>032-280200-
WESTERN PENNSYLVANIA

CITY           SKY/WX    TMP DP  RH WIND       PRES   REMARKS
ERIE           CLOUDY    28  15  58 NW6       30.24R
MEADVILLE      CLOUDY    23  17  78 NW3       30.19R
FRANKLIN       CLOUDY    21  16  79 NW6       30.19R WCI  14
NEW CASTLE     CLOUDY    26  18  71 NW10      30.22
BEAVER COUNTY  FAIR      27  18  69 N9        30.20S
BUTLER         FAIR      26  16  65 N5        30.19R
PITTSBURGH INT CLOUDY    28  16  60 N13       30.18R
PITTSBURGH     MOCLDY    28  18  66 N3        30.17R
INDIANA*       MOCLDY    27  19  74 CALM      30.19R
LATROBE        MOCLDY    28  21  74 CALM      30.17R
WASHINGTON CO* CLOUDY    28  21  75 NW3       30.22R
$$

PAZ004>006-010>012-017>019-024>028-033>037-041-042-045-046-049>053-280200-
CENTRAL PENNSYLVANIA

CITY           SKY/WX    TMP DP  RH WIND       PRES   REMARKS
BRADFORD       CLOUDY    20  11  68 N6        30.10F WCI  12
ST MARYS       MOCLDY    21  14  73 N8        30.14F WCI  12
DUBOIS         FAIR      23  12  62 N9        30.12R WCI  13
CLEARFIELD     FAIR      25  14  63 NW10      30.13R WCI  15
JOHNSTOWN      MOCLDY    23  16  74 NW9       30.07S WCI  13
SOMERSET       CLOUDY    23  19  86 NW5       30.09R
ALTOONA        CLOUDY    27  17  66 N12       30.11S
STATE COLLEGE  CLOUDY    28  18  64 N5        30.13S
REEDSVILLE     CLOUDY    30  21  69 NW9       30.15R
WELLSBORO      CLOUDY    21  16  79 N9G17     30.10R WCI  11
WILLIAMSPORT   CLOUDY    30  16  56 N5        30.16S
SELINSGROVE    CLOUDY    31  19  61 N8        30.16R
FT INDIANTOWN  NOT AVBL
CAPITAL CITY   CLOUDY    36  20  52 N8        30.14F
HARRISBURG     CLOUDY    35  19  52 N8        30.13F
YORK           CLOUDY    33  20  58 N7        30.12F
$$

PAZ038>040-043-044-047-048-054-055-060>062-067>071-280200-
EASTERN PENNSYLVANIA

CITY           SKY/WX    TMP DP  RH WIND       PRES   REMARKS
TOWANDA        CLOUDY    27  18  69 CALM      30.17F
SCRANTON       CLOUDY    28  17  63 N9        30.12F
MOUNT POCONO   CLOUDY    22  16  78 NW15G23   30.03S WCI   9
HAZLETON       CLOUDY    27  18  69 NW3       30.11S
LEHIGHTON      CLOUDY    30  21  69 CALM      30.15S
ALLENTOWN      CLOUDY    29  19  66 N8        30.14R
QN CITY/ALNTWN CLOUDY    32  21  64 N13       30.15S
QUAKERTOWN*    CLOUDY    30  19  64 N10G17    30.13S
PERKASIE*      CLOUDY    28  19  69 N7        30.13S
DOYLESTOWN     CLOUDY    32  19  58 N6        30.12S
READING        CLOUDY    32  21  64 N6        30.13S
LANCASTER      CLOUDY    33  20  58 N9        30.13S
COATESVILLE    CLOUDY    30  21  69 N7        30.12S
WEST CHESTER   CLOUDY    32  21  64 MISG      30.12S
POTTSTOWN      CLOUDY    30  19  63 N9        30.15R
BLUE BELL      CLOUDY    31  21  66 N6        30.14S
NORTH PHILA    CLOUDY    33  21  61 N13       30.15S
PHILADELPHIA   CLOUDY    33  20  58 N14       30.14S
$$


 

View Past Reports for State College, PA.

Products Courtesy of NOAA-NWS
NWS Information Parsing Script by Ken True at Saratoga Weather - Script by SE Lincoln Weather.